Regional Weather Roundup
Issued by NWS

Home | Current Version | Previous Version | Graphics & Text | Print | Product List | Glossary On
Versions: 1 2 3 4 5 6 7 8 9 10 11 12 13 14 15 16 17 18 19 20 21 22 23 24 25 26 27 28 29 30 31 32 33 34 35 36 37 38 39 40 41 42 43 44 45 46 47 48 49 50
000
ASUS43 KDTX 300301
RWRMI
MICHIGAN HOURLY REGIONAL WEATHER ROUNDUP
NATIONAL WEATHER SERVICE DETROIT/PONTIAC MI
1100 PM EDT SAT AUG 29 2015

NOTE: "FAIR" INDICATES FEW OR NO CLOUDS BELOW 12,000 FEET WITH NO
SIGNIFICANT WEATHER AND/OR OBSTRUCTION TO VISIBILITY.

MIZ047>049-052>055-059>063-066>070-074>076-081>083-300400-
SOUTHEAST LOWER MICHIGAN

CITY           SKY/WX    TMP DP  RH WIND       PRES   REMARKS
ADRIAN         LGT RAIN  68  66  93 N5        30.09S FOG
ALMA           CLOUDY    64  64  99 CALM      30.08S FOG
ANN ARBOR      CLOUDY    66  64  93 CALM      30.08S
BAD AXE        CLOUDY    64  62  95 CALM      30.10S
CARO           DRIZZLE   63  63  99 CALM      30.08F
DETROIT CITY   CLOUDY    70  64  81 NE3       30.08S
DETROIT        LGT RAIN  70  65  84 CALM      30.08S
FLINT          LGT RAIN  68  64  87 E6        30.08F FOG
GROSSE ILE     CLOUDY    70  64  83 CALM      30.07S
HILLSDALE      CLOUDY    67  67 100 SE3       30.09F
HOWELL         RAIN      66  66  99 SE3       30.08F

CITY           SKY/WX    TMP DP  RH WIND       PRES   REMARKS
JACKSON        CLOUDY    67  66  97 CALM      30.08F FOG
LAMBERTVILLE   CLOUDY    69  66  89 CALM      30.08F
LANSING        CLOUDY    66  64  93 SE7       30.07F
LAPEER         CLOUDY    64  64  99 CALM      30.09F FOG
MASON          CLOUDY    66  63  90 SE3       30.08S FOG
MT. CLEMENS    CLOUDY    68  66  94 N3        30.07F
PONTIAC        LGT RAIN  65  64  97 CALM      30.09R
PORT HOPE        N/A     65  63  93 CALM      30.08S
PORT HURON     CLOUDY    66  64  94 CALM      30.10R FOG
TRI CITIES     CLOUDY    66  63  90 CALM      30.08S FOG
MIDLAND        CLOUDY    65  64  96 CALM      30.07S FOG
TROY           LGT RAIN  68  65  89 E3        30.11S
SAGINAW HB     DRIZZLE   64  63  94 CALM      30.07S
$$
MIZ043>046-050>051-056>058-064>065-071>073-077>080-300400-
SOUTHWEST LOWER MICHIGAN

CITY           SKY/WX    TMP DP  RH WIND       PRES   REMARKS
BATTLE CREEK   CLOUDY    68  65  90 SE6       30.06F
BENTON HARBOR  CLOUDY    67  66  97 CALM      30.03S FOG
BIG RAPIDS     CLOUDY    64  63  97 CALM      30.08S FOG
COLDWATER      CLOUDY    67  66  98 E3        30.07S
FREMONT        CLOUDY    64  64 100 NE3       30.06S FOG
HOLLAND        CLOUDY    68  65  90 E5        30.05S FOG
GRAND RAPIDS   LGT RAIN  66  65  96 E5        30.06S FOG
IONIA          CLOUDY    65  64  99 E3        30.06S FOG
KALAMAZOO      CLOUDY    68  65  90 S3        30.05S
LUDINGTON      CLOUDY    66  63  89 CALM      30.07S
MARSHALL       CLOUDY    67  66  96 E5        30.06F FOG
MOUNT PLEASANT CLOUDY    65  63  92 CALM      30.07S FOG
MUSKEGON       CLOUDY    66  62  87 NE3       30.05S FOG
SOUTH HAVEN    CLOUDY    67  66  94 CALM      30.03S FOG
$$
MIZ016>042-300400-
NORTHERN LOWER MICHIGAN

CITY           SKY/WX    TMP DP  RH WIND       PRES   REMARKS
ALPENA         CLEAR     59  57  93 CALM      30.08S
BEAVER ISLAND  CLEAR     61  59  92 CALM      30.06R
BELLAIRE       PTCLDY    60  58  95 CALM      30.06F FOG
CADILLAC       PTCLDY    56  56  97 CALM      30.08F
CHARLEVOIX     CLEAR     60  60  98 CALM      30.09S FOG
FRANKFORT      CLEAR     60  59  97 CALM      30.07S
GAYLORD        CLEAR     60  59  96 CALM      30.09S
GRAYLING       FOG       57  57  98 CALM      30.10S VSB 1/4
HARBOR SPRINGS CLEAR     60  59  96 CALM      30.07S
HOUGHTON LAKE  MOCLDY    57  56  96 CALM      30.10R FOG
MANISTEE       CLOUDY    64  61  88 CALM      30.07F
OSCODA         CLEAR     60  60  97 CALM      30.07S FOG
PELLSTON       CLEAR     58  56  93 CALM      30.07S FOG
ROGERS CITY    CLEAR     60  59  94 CALM      30.08S FOG
TRAVERSE CITY  CLOUDY    65  62  90 CALM      30.06S
$$
MIZ007>008-015-300400-
EASTERN UPPER MICHIGAN

CITY           SKY/WX    TMP DP  RH WIND       PRES   REMARKS
KINROSS        CLEAR     63  63 100 S3        30.06S
MACKINAC ISLAN CLEAR     62  61  94 S7        30.06S
NEWBERRY       CLEAR     59  59 100 SW3       30.06R
S. S. MARIE    CLEAR     61  58  90 CALM      30.05S
$$
MIZ004>006-011>014-085-300400-
CENTRAL UPPER MICHIGAN

CITY           SKY/WX    TMP DP  RH WIND       PRES   REMARKS
MANISTIQUE     CLEAR     61  60  97 S3        30.04S
ESCANABA       CLEAR     63  59  88 S5        30.03F
MENOMINEE      CLEAR     61  55  82 SW3       30.05S
SAWYER-GWINN   CLEAR     65  61  86 S6        30.04S
$$
MIZ001>003-009>011-084-300400-
WESTERN UPPER MICHIGAN

CITY           SKY/WX    TMP DP  RH WIND       PRES   REMARKS
IRON MOUNTAIN  CLEAR     63  60  90 CALM      30.03S
HOUGHTON       CLOUDY    66  59  78 SE6       30.01R
IRONWOOD       CLEAR     61  61 100 CALM      29.99S
$$

ABBREVIATIONS USED IN REMARKS
   TC - TEMPERATURE IN CELSIUS
  WCI - WIND CHILL INDEX
   HX - HEAT INDEX
  VSB - VISIBILITY




USA.gov is the U.S. government's official web portal to all federal, state and local government web resources and services.